Time,TemperatureF,DewpointF,PressureIn,WindDirection,WindDirectionDegrees,WindSpeedMPH,WindSpeedGustMPH,Humidity,HourlyPrecipIn,Conditions,Clouds,dailyrainin,SoftwareType,DateUTC
2013-10-07 00:09:00,61.2,61.0,30.04,NE,43,0.0,1.0,99,0.00,,,0.00,weatherlink.com 1.10,2013-10-07 04:09:00,
2013-10-07 00:24:00,61.5,61.0,30.04,NE,45,0.0,1.0,99,0.00,,,0.00,weatherlink.com 1.10,2013-10-07 04:24:00,
2013-10-07 00:39:00,61.6,61.0,30.04,NE,45,0.0,0.0,99,0.00,,,0.00,weatherlink.com 1.10,2013-10-07 04:39:00,
2013-10-07 00:54:00,61.8,62.0,30.03,SSW,194,1.0,1.0,99,0.00,,,0.00,weatherlink.com 1.10,2013-10-07 04:54:00,
2013-10-07 01:09:00,61.9,62.0,30.03,SSW,194,0.0,0.0,99,0.00,,,0.00,weatherlink.com 1.10,2013-10-07 05:09:00,
2013-10-07 01:24:00,62.0,62.0,30.03,SSW,194,0.0,0.0,99,0.00,,,0.00,weatherlink.com 1.10,2013-10-07 05:24:00,
2013-10-07 01:39:00,61.9,62.0,30.03,SSW,194,0.0,0.0,99,0.00,,,0.00,weatherlink.com 1.10,2013-10-07 05:39:00,
2013-10-07 01:55:00,62.0,62.0,30.02,SSW,194,0.0,0.0,99,0.00,,,0.00,weatherlink.com 1.10,2013-10-07 05:55:00,
2013-10-07 02:09:00,62.0,62.0,30.02,SSW,194,0.0,0.0,99,0.00,,,0.00,weatherlink.com 1.10,2013-10-07 06:09:00,
2013-10-07 02:24:00,62.4,62.0,30.01,NW,319,0.0,1.0,99,0.00,,,0.00,weatherlink.com 1.10,2013-10-07 06:24:00,
2013-10-07 02:39:00,62.6,62.0,30.00,NW,319,0.0,0.0,99,0.00,,,0.00,weatherlink.com 1.10,2013-10-07 06:39:00,
2013-10-07 02:54:00,62.6,62.0,30.00,NW,319,0.0,0.0,99,0.00,,,0.00,weatherlink.com 1.10,2013-10-07 06:54:00,
2013-10-07 03:10:00,63.0,63.0,29.99,NW,319,0.0,0.0,99,0.00,,,0.00,weatherlink.com 1.10,2013-10-07 07:10:00,
2013-10-07 03:25:00,63.8,64.0,29.99,NW,319,0.0,0.0,99,0.00,,,0.00,weatherlink.com 1.10,2013-10-07 07:25:00,
2013-10-07 03:40:00,64.2,64.0,29.98,NW,319,0.0,0.0,99,0.00,,,0.00,weatherlink.com 1.10,2013-10-07 07:40:00,
2013-10-07 03:55:00,64.4,64.0,29.98,NW,319,0.0,0.0,99,0.00,,,0.00,weatherlink.com 1.10,2013-10-07 07:55:00,
2013-10-07 04:10:00,64.7,64.0,29.98,NW,319,0.0,0.0,99,0.00,,,0.00,weatherlink.com 1.10,2013-10-07 08:10:00,
2013-10-07 04:25:00,64.9,65.0,29.98,NW,319,0.0,0.0,99,0.00,,,0.00,weatherlink.com 1.10,2013-10-07 08:25:00,
2013-10-07 04:40:00,65.0,65.0,29.97,NW,319,0.0,0.0,99,0.00,,,0.00,weatherlink.com 1.10,2013-10-07 08:40:00,
2013-10-07 04:55:00,65.1,65.0,29.96,NW,319,0.0,0.0,99,0.00,,,0.00,weatherlink.com 1.10,2013-10-07 08:55:00,
2013-10-07 05:10:00,65.4,65.0,29.96,North,360,0.0,1.0,99,0.00,,,0.00,weatherlink.com 1.10,2013-10-07 09:10:00,
2013-10-07 05:25:00,65.5,65.0,29.96,NNW,345,0.0,1.0,99,0.00,,,0.00,weatherlink.com 1.10,2013-10-07 09:25:00,
2013-10-07 05:40:00,65.5,65.0,29.96,NNW,347,0.0,0.0,99,0.00,,,0.00,weatherlink.com 1.10,2013-10-07 09:40:00,
2013-10-07 05:55:00,65.6,65.0,29.96,NNW,346,0.0,1.0,99,0.00,,,0.00,weatherlink.com 1.10,2013-10-07 09:55:00,
2013-10-07 06:10:00,65.6,65.0,29.95,NNW,346,0.0,1.0,99,0.00,,,0.00,weatherlink.com 1.10,2013-10-07 10:10:00,
2013-10-07 06:25:00,65.6,65.0,29.95,NNW,346,0.0,1.0,99,0.00,,,0.00,weatherlink.com 1.10,2013-10-07 10:25:00,
2013-10-07 06:40:00,65.8,66.0,29.95,SSE,149,0.0,1.0,99,0.00,,,0.00,weatherlink.com 1.10,2013-10-07 10:40:00,
2013-10-07 06:55:00,65.9,66.0,29.95,SSW,195,0.0,0.0,99,0.00,,,0.00,weatherlink.com 1.10,2013-10-07 10:55:00,
2013-10-07 07:10:00,65.9,66.0,29.94,South,181,0.0,2.0,99,0.00,,,0.00,weatherlink.com 1.10,2013-10-07 11:10:00,
2013-10-07 07:25:00,65.9,66.0,29.94,South,179,0.0,0.0,99,0.00,,,0.00,weatherlink.com 1.10,2013-10-07 11:25:00,
2013-10-07 07:40:00,66.1,66.0,29.94,ESE,123,0.0,1.0,99,0.00,,,0.00,weatherlink.com 1.10,2013-10-07 11:40:00,
2013-10-07 07:55:00,66.2,66.0,29.94,ESE,123,0.0,1.0,99,0.00,,,0.00,weatherlink.com 1.10,2013-10-07 11:55:00,
2013-10-07 08:10:00,66.5,66.0,29.94,ESE,123,0.0,0.0,99,0.00,,,0.00,weatherlink.com 1.10,2013-10-07 12:10:00,
2013-10-07 08:25:00,66.6,66.0,29.93,NNW,330,0.0,1.0,99,0.00,,,0.00,weatherlink.com 1.10,2013-10-07 12:25:00,
2013-10-07 08:40:00,66.9,67.0,29.93,SSW,204,0.0,1.0,99,0.00,,,0.00,weatherlink.com 1.10,2013-10-07 12:40:00,
2013-10-07 08:55:00,67.1,67.0,29.93,ENE,57,0.0,1.0,99,0.00,,,0.00,weatherlink.com 1.10,2013-10-07 12:55:00,
2013-10-07 09:10:00,67.2,67.0,29.92,SSE,156,0.0,0.0,99,0.00,,,0.00,weatherlink.com 1.10,2013-10-07 13:10:00,
2013-10-07 09:25:00,67.6,67.0,29.92,ENE,71,0.0,2.0,99,0.00,,,0.00,weatherlink.com 1.10,2013-10-07 13:25:00,
2013-10-07 09:40:00,67.8,68.0,29.91,NE,48,0.0,2.0,99,0.00,,,0.00,weatherlink.com 1.10,2013-10-07 13:40:00,
2013-10-07 09:55:00,68.0,68.0,29.91,SSE,153,0.0,1.0,99,0.00,,,0.00,weatherlink.com 1.10,2013-10-07 13:55:00,
2013-10-07 10:10:00,68.2,68.0,29.91,East,82,0.0,2.0,99,0.00,,,0.00,weatherlink.com 1.10,2013-10-07 14:10:00,
2013-10-07 10:25:00,68.5,68.0,29.90,SSE,167,1.0,2.0,99,0.00,,,0.00,weatherlink.com 1.10,2013-10-07 14:25:00,
2013-10-07 10:41:00,69.1,69.0,29.89,East,97,0.0,3.0,99,0.00,,,0.00,weatherlink.com 1.10,2013-10-07 14:41:00,
2013-10-07 10:55:00,69.4,69.0,29.88,North,11,1.0,2.0,99,0.00,,,0.00,weatherlink.com 1.10,2013-10-07 14:55:00,
2013-10-07 11:10:00,69.7,69.0,29.88,SSE,150,0.0,1.0,97,0.00,,,0.00,weatherlink.com 1.10,2013-10-07 15:10:00,
2013-10-07 11:25:00,70.3,69.0,29.87,ESE,121,0.0,2.0,96,0.00,,,0.00,weatherlink.com 1.10,2013-10-07 15:25:00,
2013-10-07 11:41:00,70.8,69.0,29.86,NNE,20,0.0,2.0,95,0.00,,,0.00,weatherlink.com 1.10,2013-10-07 15:41:00,
2013-10-07 11:56:00,71.4,69.0,29.86,ENE,59,0.0,3.0,93,0.00,,,0.00,weatherlink.com 1.10,2013-10-07 15:56:00,
2013-10-07 12:11:00,72.0,70.0,29.85,ENE,63,1.0,3.0,92,0.00,,,0.00,weatherlink.com 1.10,2013-10-07 16:11:00,
2013-10-07 12:26:00,72.2,70.0,29.84,SE,131,1.0,5.0,91,0.00,,,0.00,weatherlink.com 1.10,2013-10-07 16:26:00,
2013-10-07 12:41:00,71.7,69.0,29.83,SE,144,0.0,5.0,92,0.00,,,0.00,weatherlink.com 1.10,2013-10-07 16:41:00,
2013-10-07 12:56:00,71.3,69.0,29.82,East,84,0.0,3.0,92,0.00,,,0.00,weatherlink.com 1.10,2013-10-07 16:56:00,
2013-10-07 13:11:00,70.6,69.0,29.81,ESE,117,0.0,5.0,93,0.01,,,0.01,weatherlink.com 1.10,2013-10-07 17:11:00,
2013-10-07 13:26:00,70.4,69.0,29.80,SE,146,0.0,3.0,94,0.01,,,0.01,weatherlink.com 1.10,2013-10-07 17:26:00,
2013-10-07 13:41:00,70.8,69.0,29.80,WSW,252,4.0,8.0,93,0.01,,,0.01,weatherlink.com 1.10,2013-10-07 17:41:00,
2013-10-07 13:56:00,71.1,69.0,29.79,ENE,75,1.0,4.0,92,0.01,,,0.01,weatherlink.com 1.10,2013-10-07 17:56:00,
2013-10-07 14:11:00,71.4,69.0,29.78,ENE,77,0.0,5.0,92,0.00,,,0.01,weatherlink.com 1.10,2013-10-07 18:11:00,
2013-10-07 14:26:00,71.6,69.0,29.78,East,88,2.0,10.0,91,0.00,,,0.01,weatherlink.com 1.10,2013-10-07 18:26:00,
2013-10-07 14:41:00,71.9,69.0,29.78,SE,134,1.0,5.0,91,0.00,,,0.01,weatherlink.com 1.10,2013-10-07 18:41:00,
2013-10-07 15:11:00,71.9,69.0,29.78,SE,129,1.0,7.0,90,0.00,,,0.01,weatherlink.com 1.10,2013-10-07 19:11:00,
2013-10-07 15:26:00,71.9,69.0,29.77,SSE,152,0.0,7.0,91,0.01,,,0.02,weatherlink.com 1.10,2013-10-07 19:26:00,
2013-10-07 15:41:00,70.5,69.0,29.77,SE,139,1.0,4.0,95,0.04,,,0.05,weatherlink.com 1.10,2013-10-07 19:41:00,
2013-10-07 15:56:00,70.4,69.0,29.77,SSE,150,1.0,4.0,96,0.04,,,0.05,weatherlink.com 1.10,2013-10-07 19:56:00,
2013-10-07 16:11:00,70.5,69.0,29.77,East,91,0.0,6.0,95,0.04,,,0.05,weatherlink.com 1.10,2013-10-07 20:11:00,
2013-10-07 16:26:00,71.1,69.0,29.77,NNW,328,3.0,5.0,93,0.03,,,0.05,weatherlink.com 1.10,2013-10-07 20:26:00,
2013-10-07 16:41:00,68.7,66.0,29.80,SE,125,0.0,4.0,92,0.16,,,0.21,weatherlink.com 1.10,2013-10-07 20:41:00,
2013-10-07 16:56:00,66.7,65.0,29.80,SE,139,0.0,2.0,95,0.20,,,0.25,weatherlink.com 1.10,2013-10-07 20:56:00,
2013-10-07 17:11:00,66.0,65.0,29.80,SSE,166,0.0,3.0,96,0.20,,,0.25,weatherlink.com 1.10,2013-10-07 21:11:00,
2013-10-07 17:26:00,65.4,65.0,29.80,SSE,150,0.0,3.0,97,0.23,,,0.28,weatherlink.com 1.10,2013-10-07 21:26:00,
2013-10-07 17:41:00,64.9,64.0,29.80,SSE,162,0.0,1.0,97,0.10,,,0.31,weatherlink.com 1.10,2013-10-07 21:41:00,
2013-10-07 17:56:00,64.6,64.0,29.82,NE,52,1.0,4.0,97,0.07,,,0.32,weatherlink.com 1.10,2013-10-07 21:56:00,
2013-10-07 18:11:00,64.4,64.0,29.82,SSE,160,1.0,3.0,98,0.07,,,0.32,weatherlink.com 1.10,2013-10-07 22:11:00,
2013-10-07 18:26:00,64.3,64.0,29.84,WNW,297,1.0,2.0,98,0.04,,,0.32,weatherlink.com 1.10,2013-10-07 22:26:00,
2013-10-07 18:41:00,64.2,64.0,29.84,SSE,164,1.0,1.0,98,0.01,,,0.32,weatherlink.com 1.10,2013-10-07 22:41:00,
2013-10-07 18:56:00,64.2,64.0,29.85,SE,143,0.0,2.0,98,0.01,,,0.33,weatherlink.com 1.10,2013-10-07 22:56:00,
2013-10-07 19:11:00,63.5,62.0,29.85,ENE,77,0.0,2.0,96,0.03,,,0.35,weatherlink.com 1.10,2013-10-07 23:11:00,
2013-10-07 19:26:00,62.6,61.0,29.86,ESE,121,0.0,1.0,95,0.03,,,0.35,weatherlink.com 1.10,2013-10-07 23:26:00,
2013-10-07 19:41:00,61.9,61.0,29.86,ESE,121,0.0,1.0,96,0.03,,,0.35,weatherlink.com 1.10,2013-10-07 23:41:00,
2013-10-07 19:56:00,61.4,60.0,29.86,SSE,155,0.0,1.0,96,0.01,,,0.35,weatherlink.com 1.10,2013-10-07 23:56:00,
2013-10-07 20:11:00,61.1,60.0,29.87,SSE,150,0.0,1.0,97,0.00,,,0.35,weatherlink.com 1.10,2013-10-08 00:11:00,
2013-10-07 20:26:00,60.9,60.0,29.87,North,7,1.0,2.0,96,0.00,,,0.35,weatherlink.com 1.10,2013-10-08 00:26:00,
2013-10-07 20:41:00,60.8,60.0,29.87,NNW,327,0.0,1.0,96,0.00,,,0.35,weatherlink.com 1.10,2013-10-08 00:41:00,
2013-10-07 20:56:00,60.5,60.0,29.88,NNW,328,0.0,1.0,97,0.00,,,0.35,weatherlink.com 1.10,2013-10-08 00:56:00,
2013-10-07 21:11:00,60.2,59.0,29.88,NNW,328,0.0,1.0,97,0.00,,,0.35,weatherlink.com 1.10,2013-10-08 01:11:00,
2013-10-07 21:26:00,59.9,59.0,29.88,SW,231,0.0,1.0,95,0.00,,,0.35,weatherlink.com 1.10,2013-10-08 01:26:00,
2013-10-07 21:41:00,59.3,58.0,29.89,SW,231,0.0,0.0,95,0.00,,,0.35,weatherlink.com 1.10,2013-10-08 01:41:00,
2013-10-07 21:56:00,59.1,57.0,29.89,West,262,0.0,1.0,93,0.00,,,0.35,weatherlink.com 1.10,2013-10-08 01:56:00,
2013-10-07 22:11:00,58.7,58.0,29.90,West,262,0.0,0.0,96,0.00,,,0.35,weatherlink.com 1.10,2013-10-08 02:11:00,
2013-10-07 22:26:00,58.0,57.0,29.90,West,261,0.0,0.0,96,0.00,,,0.35,weatherlink.com 1.10,2013-10-08 02:26:00,
2013-10-07 22:41:00,57.4,56.0,29.91,West,261,0.0,1.0,96,0.00,,,0.35,weatherlink.com 1.10,2013-10-08 02:41:00,
2013-10-07 22:57:00,56.9,56.0,29.91,West,261,0.0,1.0,95,0.00,,,0.35,weatherlink.com 1.10,2013-10-08 02:57:00,
2013-10-07 23:12:00,56.7,56.0,29.91,West,262,0.0,1.0,96,0.00,,,0.35,weatherlink.com 1.10,2013-10-08 03:12:00,
2013-10-07 23:27:00,56.5,55.0,29.92,North,4,0.0,1.0,94,0.00,,,0.35,weatherlink.com 1.10,2013-10-08 03:27:00,
2013-10-07 23:42:00,56.3,55.0,29.92,NNW,334,0.0,1.0,95,0.00,,,0.35,weatherlink.com 1.10,2013-10-08 03:42:00,
2013-10-07 23:57:00,56.2,54.0,29.93,NE,39,0.0,1.0,93,0.00,,,0.35,weatherlink.com 1.10,2013-10-08 03:57:00,